This demonstration page uses our WeatherBlox Daily Observations layout. Learn more.

Left ArrowRight Arrow

44.89941, -97.11507

Hourly Observations for April 11, 2019

Temp ( °F °C ) Dew Point ( °F °C ) Humidity (%) Winds ( mph kmh ) Pressure ( in mb ) Visibility ( mi km ) Precip ( " mm )
12:01 am 00:01 Windy with Snow Likely 28 -2.2 25 -3.9 88 88 NE 30 48 29.91 1013 1 2 0.00 0.03
12:26 am 00:26 Windy with Snow Likely 27 -2.8 25 -3.9 92 92 NE 26 43 29.93 1014 2 2 0.00 0.03
12:31 am 00:31 Windy with Snow Likely 27 -2.8 24 -4.4 89 89 NE 30 48 29.93 1014 1 2 0.00 0.03
12:36 am 00:36 Windy with Snow Likely 27 -2.8 24 -4.4 89 89 NE 24 39 29.93 1014 1 2 0.00 0.03
12:53 am 00:53 Windy with Snow Likely 27 -2.8 24 -4.4 89 89 NE 30 48 29.91 1013 1 2 0.00 0.03
1:14 am 01:14 Windy with Snow Likely 27 -2.8 24 -4.4 89 89 ENE 26 43 29.93 1014 1 2 0.02 0.51
1:27 am 01:27 Windy with Snow Likely 26 -3.3 24 -4.4 92 92 ENE 30 48 29.93 1014 1 1 0.02 0.51
1:42 am 01:42 Mostly Cloudy with Snow 26 -3.3 23 -5 88 88 NE 32 52 29.92 1013 1 1 0.03 0.76
1:53 am 01:53 Mostly Cloudy with Snow 26 -3.3 23 -5 88 88 NE 30 48 29.88 1012 1 1 0.03 0.76
2:19 am 02:19 Windy with Snow Likely 26 -3.3 23 -5 88 88 NE 32 52 29.89 1012 1 1 0.01 0.25
2:30 am 02:30 Windy with Snow Likely 26 -3.3 23 -5 88 88 NE 31 50 29.87 1012 1 1 0.01 0.25
2:53 am 02:53 Windy with Snow Likely 25 -3.9 23 -5 92 92 NE 33 54 29.81 1009 1 1 0.02 0.51
3:15 am 03:15 Windy with Snow Likely 25 -3.9 23 -5 92 92 NE 35 56 29.82 1010 1 1 0.01 0.25
3:31 am 03:31 Windy with Snow Likely 25 -3.9 23 -5 92 92 NE 35 56 29.81 1009 1 1 0.02 0.51
3:43 am 03:43 Windy with Snow Likely 25 -3.9 23 -5 92 92 NE 37 59 29.79 1009 0 0 0.03 0.76
3:53 am 03:53 Windy with Snow Likely 25 -3.9 23 -5 92 92 NE 30 48 29.75 1008 0 0 0.04 1.02
4:04 am 04:04 Windy with Snow Likely 25 -3.9 23 -5 92 92 ENE 30 48 29.82 1010 1 1 0.00 0.03
4:13 am 04:13 Windy with Snow Likely 25 -3.9 23 -5 92 92 ENE 29 46 29.83 1010 1 2 0.00 0.03
4:50 am 04:50 Mostly Cloudy with Light Snow 25 -4 23 -5 93 93 NE 25 41 29.86 1011 1 1 0.02 0.51
4:53 am 04:53 Mostly Cloudy with Light Snow 25 -3.9 23 -5 92 92 NE 23 37 29.82 1010 1 1 0.03 0.76
5:31 am 05:31 Mostly Cloudy with Snow 25 -3.9 23 -5 92 92 NE 25 41 29.85 1011 1 1 0.01 0.25
5:53 am 05:53 Mostly Cloudy with Snow 25 -3.9 22 -5.6 88 88 NE 29 46 29.77 1008 1 1 0.02 0.51
6:20 am 06:20 Mostly Cloudy with Snow 24 -4.4 22 -5.6 91 91 NNE 28 44 29.76 1008 1 1 0.01 0.25
6:32 am 06:32 Mostly Cloudy with Snow 24 -4.4 22 -5.6 91 91 NE 28 44 29.80 1009 1 1 0.01 0.25
6:41 am 06:41 Mostly Cloudy with Heavy Snow 24 -4.4 22 -5.6 91 91 NE 25 41 29.80 1009 0 0 0.02 0.51
6:53 am 06:53 Mostly Cloudy with Heavy Snow 24 -4.4 22 -5.6 91 91 NE 28 44 29.75 1007 0 0 0.04 1.02
7:03 am 07:03 Mostly Cloudy with Freezing Fog 24 -4.4 22 -5.6 91 91 NE 30 48 29.78 1008 0 0 0.03 0.76
7:23 am 07:23 Mostly Cloudy with Freezing Fog 24 -4.4 22 -5.6 91 91 NE 30 48 29.76 1008 0 0 0.05 1.27
7:49 am 07:49 Mostly Cloudy with Freezing Fog 25 -4 21 -6 86 86 NE 29 46 29.76 1008 0 0 0.06 1.52
7:53 am 07:53 Mostly Cloudy with Freezing Fog 24 -4.4 21 -6.1 88 88 NE 30 48 29.71 1006 0 0 0.07 1.78
8:53 am 08:53 Mostly Cloudy with Freezing Fog 24 -4.4 21 -6.1 88 88 NE 26 43 29.68 1005 0 0 0.00 0.00
9:20 am 09:20 Mostly Cloudy with Freezing Fog 24 -4.4 21 -6.1 88 88 NE 30 48 29.73 1007 0 0 0.00 0.00
9:49 am 09:49 Mostly Cloudy with Thunderstorms 25 -4 21 -6 86 86 NE 29 46 29.72 1006 0 0 0.00 0.00
9:53 am 09:53 Mostly Cloudy with Thunderstorms 24 -4.4 21 -6.1 88 88 NE 28 44 29.67 1005 0 0 0.00 0.00
10:04 am 10:04 Mostly Cloudy with Nearby Thunderstorms 24 -4.4 22 -5.6 91 91 NE 24 39 29.72 1006 0 0 0.00 0.00
10:20 am 10:20 Mostly Cloudy with Freezing Fog 24 -4.4 22 -5.6 91 91 NE 23 37 29.72 1006 0 0 0.00 0.00
10:53 am 10:53 Mostly Cloudy with Freezing Fog 24 -4.4 22 -5.6 91 91 NE 26 43 29.64 1004 0 0 0.00 0.00
11:00 am 11:00 Mostly Cloudy with Nearby Thunderstorms 25 -3.9 22 -5.6 88 88 NE 26 43 29.67 1005 0 0 0.00 0.00
11:08 am 11:08 Mostly Cloudy with Thunderstorms 25 -3.9 22 -5.6 88 88 NE 30 48 29.67 1005 0 0 0.00 0.00
11:20 am 11:20 Mostly Cloudy with Freezing Fog 25 -3.9 22 -5.6 88 88 NE 26 43 29.67 1005 1 1 0.00 0.00
11:27 am 11:27 Cloudy with Freezing Fog 25 -3.9 22 -5.6 88 88 NNE 30 48 29.66 1004 1 1 0.00 0.00
11:50 am 11:50 Cloudy with Freezing Fog 25 -4 21 -6 86 86 NNE 31 50 29.63 1003 1 1 0.00 0.00
11:53 am 11:53 Cloudy with Freezing Fog 25 -3.9 22 -5.6 88 88 NE 29 46 29.58 1002 1 1 0.00 0.00
12:18 pm 12:18 Cloudy with Freezing Fog 25 -3.9 23 -5 92 92 NNE 33 54 29.59 1002 1 1 0.00 0.00
12:42 pm 12:42 Cloudy with Freezing Fog 26 -3.3 23 -5 88 88 NE 33 54 29.58 1002 1 1 0.00 0.00
12:44 pm 12:44 Cloudy with Freezing Fog 26 -3.3 23 -5 88 88 NE 30 48 29.58 1002 0 0 0.00 0.00
12:53 pm 12:53 Cloudy with Freezing Fog 26 -3.3 23 -5 88 88 NE 28 44 29.55 1001 1 1 0.00 0.00
1:09 pm 13:09 Cloudy with Freezing Fog 26 -3.3 23 -5 88 88 NNE 29 46 29.60 1002 1 1 0.00 0.00
1:36 pm 13:36 Cloudy with Mist and Fog 26 -3.3 24 -4.4 92 92 NNE 25 41 29.60 1002 1 1 0.00 0.00
1:48 pm 13:48 Cloudy with Mist and Fog 27 -3 25 -4 93 93 NNE 28 44 29.61 1003 1 2 0.00 0.00
1:53 pm 13:53 Cloudy with Mist and Fog 27 -2.8 24 -4.4 89 89 NNE 25 41 29.57 1002 1 2 0.00 0.00
2:09 pm 14:09 Cloudy with Mist and Fog 27 -2.8 24 -4.4 89 89 NNE 29 46 29.60 1002 1 1 0.00 0.00
2:53 pm 14:53 Mostly Cloudy with Mist and Fog 27 -2.8 24 -4.4 89 89 NE 32 52 29.54 1000 1 1 0.00 0.00
3:02 pm 15:02 Cloudy with Freezing Fog 27 -2.8 24 -4.4 89 89 NE 31 50 29.56 1001 1 1 0.00 0.00
3:25 pm 15:25 Windy with Snow Likely 27 -2.8 24 -4.4 89 89 NE 33 54 29.56 1001 0 0 0.01 0.25
3:45 pm 15:45 Windy with Snow Likely 27 -2.8 24 -4.4 89 89 NE 31 50 29.55 1001 1 1 0.02 0.51
3:53 pm 15:53 Windy with Snow Likely 27 -2.8 24 -4.4 89 89 NE 28 44 29.52 1000 1 1 0.03 0.76
4:08 pm 16:08 Cloudy with Heavy Snow 27 -2.8 24 -4.4 89 89 NE 30 48 29.55 1001 0 0 0.01 0.25
4:15 pm 16:15 Mostly Cloudy with Heavy Snow 27 -2.8 25 -3.9 92 92 NE 28 44 29.55 1001 0 0 0.01 0.25
4:33 pm 16:33 Windy with Snow Likely 27 -2.8 24 -4.4 89 89 NE 30 48 29.55 1001 1 1 0.02 0.51
4:45 pm 16:45 Mostly Cloudy with Heavy Snow 27 -2.8 24 -4.4 89 89 NE 29 46 29.54 1000 0 0 0.03 0.76
4:53 pm 16:53 Mostly Cloudy with Snow 27 -2.8 24 -4.4 89 89 NE 28 44 29.51 999 0 0 0.04 1.02
5:01 pm 17:01 Windy with Snow Likely 27 -2.8 24 -4.4 89 89 NE 29 46 29.54 1000 0 0 0.00 0.03
5:08 pm 17:08 Mostly Cloudy with Light Snow 27 -2.8 24 -4.4 89 89 NE 28 44 29.54 1000 1 1 0.01 0.25
5:24 pm 17:24 Windy with Snow Likely 27 -2.8 24 -4.4 89 89 NE 26 43 29.54 1000 1 1 0.01 0.25
5:32 pm 17:32 Windy with Snow Likely 27 -2.8 24 -4.4 89 89 NE 26 43 29.54 1000 1 1 0.01 0.25
5:50 pm 17:50 Mostly Cloudy with Light Snow 27 -3 25 -4 93 93 NE 31 50 29.53 1000 1 1 0.02 0.51
5:53 pm 17:53 Mostly Cloudy with Light Snow 27 -2.8 24 -4.4 89 89 NE 31 50 29.50 999 1 1 0.02 0.51
6:19 pm 18:19 Mostly Cloudy with Light Snow 27 -2.8 24 -4.4 89 89 NE 28 44 29.54 1000 0 0 0.03 0.76
6:28 pm 18:28 Mostly Cloudy with Heavy Snow 27 -2.8 24 -4.4 89 89 NE 31 50 29.54 1000 0 0 0.03 0.76
6:50 pm 18:50 Mostly Cloudy with Freezing Fog 27 -3 25 -4 93 93 NE 29 46 29.54 1000 1 1 0.04 1.02
6:53 pm 18:53 Mostly Cloudy with Freezing Fog 26 -3.3 24 -4.4 92 92 NE 29 46 29.50 999 1 1 0.04 1.02
7:25 pm 19:25 Mostly Cloudy with Freezing Fog 26 -3.3 24 -4.4 92 92 NE 26 43 29.53 1000 0 0 0.03 0.76
7:51 pm 19:51 Mostly Cloudy with Freezing Fog 27 -3 25 -4 93 93 NNE 25 41 29.53 1000 1 1 0.03 0.76
7:53 pm 19:53 Mostly Cloudy with Freezing Fog 26 -3.3 24 -4.4 92 92 NNE 25 41 29.49 999 1 1 0.03 0.76
8:23 pm 20:23 Mostly Cloudy with Mist and Fog 26 -3.3 24 -4.4 92 92 NE 28 44 29.52 1000 1 2 0.00 0.00
8:32 pm 20:32 Mostly Cloudy with Mist and Fog 26 -3.3 24 -4.4 92 92 NNE 26 43 29.52 1000 1 2 0.00 0.00
8:42 pm 20:42 Cloudy with Mist and Fog 26 -3.3 24 -4.4 92 92 NNE 26 43 29.52 1000 1 1 0.00 0.00
8:53 pm 20:53 Mostly Cloudy with Mist and Fog 26 -3.3 24 -4.4 92 92 NNE 24 39 29.49 999 1 2 0.00 0.00
9:42 pm 21:42 Cloudy with Mist and Fog 25 -3.9 23 -5 92 92 NNE 25 41 29.53 1000 2 2 0.00 0.00
9:53 pm 21:53 Cloudy with Mist and Fog 25 -3.9 23 -5 92 92 NNE 26 43 29.48 998 2 3 0.00 0.00
10:01 pm 22:01 Cloudy with Mist and Fog 25 -3.9 23 -5 92 92 NNE 26 43 29.52 1000 2 3 0.00 0.00
10:53 pm 22:53 Cloudy with Mist and Fog 25 -3.9 23 -5 92 92 NNE 24 39 29.47 998 2 3 0.00 0.00
11:14 pm 23:14 Cloudy with Mist and Fog 25 -3.9 23 -5 92 92 NNE 26 43 29.51 999 2 3 0.00 0.00
11:18 pm 23:18 Cloudy with Mist and Fog 25 -3.9 23 -5 92 92 NNE 28 44 29.51 999 2 3 0.00 0.00
11:28 pm 23:28 Cloudy with Mist and Fog 25 -3.9 23 -5 92 92 NNE 28 44 29.51 999 2 3 0.00 0.00
11:39 pm 23:39 Cloudy with Mist and Fog 25 -3.9 23 -5 92 92 NNE 25 41 29.50 999 2 3 0.00 0.00
11:53 pm 23:53 Cloudy with Mist and Fog 25 -3.9 23 -5 92 92 N 24 39 29.46 998 2 2 0.00 0.00

Powered by AerisWeather